Simultaneous Nadir Overpasses (SNOs) Predictions

Prediction of SNOs between GOES-15 and TERRA Satellite Orbit:

Table of predicted SNOs for the next 14.0 days since TLE Epoch: 12/6/2015
Index Date Time (GOES-15) GOES-15 Lat,Lon TERRA Lat,Lon Distance(km) Time Diff (sec)
1 12/06/2015 07:16:25 0.14,-135.39 0.85,-131.94 391.41 80
2 12/06/2015 19:40:19 -0.12,-135.40 0.26,-137.09 192.24 80
3 12/08/2015 19:25:26 -0.12,-135.38 -0.37,-134.13 141.69 80
4 12/09/2015 07:49:30 0.10,-135.35 -0.72,-139.32 451.13 80
5 12/10/2015 19:13:13 -0.13,-135.34 -1.00,-131.17 474.85 80
6 12/11/2015 07:37:17 0.11,-135.31 -0.09,-136.36 118.32 80
7 12/13/2015 07:22:23 0.11,-135.27 0.49,-133.38 213.81 80
8 12/13/2015 19:46:18 -0.09,-135.27 0.61,-138.54 371.44 80
9 12/15/2015 19:31:25
